• In Russia
  • List of Countries
  • For 7 days
  • Water Temperature
  • Weather Map
  • Weather Widgets
  • user-avatar
    Login

    Hourly Weather Siempang

    Today, 3 June, Wednesday

    Time Temperature Precipitation Wind Pressure Humidity
    00:00 +24°C° 1.3 mm 0 mps 752 mmHg 96%
    01:00 +26°C° 0 mm 1 mps 752 mmHg 95%
    02:00 +26°C° 0.8 mm 1 mps 751 mmHg 96%
    03:00 +24°C° 0.8 mm 0 mps 751 mmHg 97%
    04:00 +24°C° 0.8 mm 0 mps 750 mmHg 98%
    05:00 +24°C° 0 mm 0 mps 750 mmHg 97%
    06:00 +25°C° 0 mm 0 mps 751 mmHg 97%
    07:00 +27°C° 0 mm 1 mps 751 mmHg 94%
    08:00 +29°C° 0 mm 1 mps 751 mmHg 84%
    09:00 +31°C° 0 mm 1 mps 751 mmHg 74%
    10:00 +33°C° 0 mm 1 mps 751 mmHg 64%
    11:00 +34°C° 0 mm 1 mps 750 mmHg 60%
    12:00 +35°C° 0 mm 1 mps 750 mmHg 57%
    13:00 +36°C° 0 mm 1 mps 749 mmHg 53%
    14:00 +35°C° 0.2 mm 1 mps 749 mmHg 56%
    15:00 +35°C° 0.2 mm 1 mps 748 mmHg 59%
    16:00 +34°C° 0.2 mm 1 mps 747 mmHg 63%
    17:00 +32°C° 0.6 mm 1 mps 748 mmHg 71%
    18:00 +30°C° 0.6 mm 1 mps 748 mmHg 80%
    19:00 +26°C° 0.6 mm 0 mps 749 mmHg 89%
    20:00 +26°C° 0.4 mm 0 mps 749 mmHg 90%
    21:00 +26°C° 0.4 mm 0 mps 750 mmHg 91%
    22:00 +26°C° 0.4 mm 0 mps 750 mmHg 92%
    23:00 +25°C° 0.3 mm 0 mps 750 mmHg 93%

    Tomorrow, 4 June, Thursday

    Time Temperature Precipitation Wind Pressure Humidity
    00:00 +25°C° 0.3 mm 0 mps 750 mmHg 94%
    01:00 +25°C° 0.3 mm 0 mps 750 mmHg 94%
    02:00 +25°C° 0.1 mm 0 mps 750 mmHg 95%
    03:00 +25°C° 0.1 mm 0 mps 749 mmHg 95%
    04:00 +24°C° 0.1 mm 0 mps 749 mmHg 96%
    05:00 +25°C° 0.2 mm 0 mps 750 mmHg 95%
    06:00 +25°C° 0.2 mm 0 mps 750 mmHg 94%
    07:00 +26°C° 0.2 mm 0 mps 751 mmHg 93%
    08:00 +29°C° 0.2 mm 1 mps 750 mmHg 85%
    09:00 +31°C° 0.2 mm 1 mps 750 mmHg 76%
    10:00 +33°C° 0.2 mm 1 mps 750 mmHg 68%
    11:00 +33°C° 1.8 mm 1 mps 750 mmHg 74%
    12:00 +32°C° 1.8 mm 1 mps 749 mmHg 79%
    13:00 +32°C° 1.8 mm 1 mps 749 mmHg 85%
    14:00 +31°C° 1 mm 1 mps 748 mmHg 87%
    15:00 +31°C° 1 mm 1 mps 748 mmHg 90%
    16:00 +30°C° 1 mm 1 mps 748 mmHg 92%
    17:00 +29°C° 0.3 mm 1 mps 748 mmHg 93%
    18:00 +29°C° 0.3 mm 1 mps 749 mmHg 94%
    19:00 +28°C° 0.3 mm 1 mps 749 mmHg 94%
    20:00 +28°C° 0.2 mm 1 mps 749 mmHg 95%
    21:00 +27°C° 0.2 mm 1 mps 750 mmHg 95%
    22:00 +27°C° 0.2 mm 1 mps 750 mmHg 95%
    23:00 +27°C° 2.7 mm 1 mps 750 mmHg 96%

    Day after tomorrow, 5 June, Friday

    Time Temperature Precipitation Wind Pressure Humidity
    00:00 +27°C° 2.7 mm 1 mps 750 mmHg 97%
    01:00 +26°C° 2.7 mm 1 mps 750 mmHg 98%
    02:00 +26°C° 1.8 mm 1 mps 750 mmHg 98%
    03:00 +26°C° 1.8 mm 1 mps 749 mmHg 98%
    04:00 +26°C° 1.8 mm 1 mps 749 mmHg 99%
    05:00 +26°C° 0.9 mm 1 mps 750 mmHg 98%
    06:00 +26°C° 0.9 mm 1 mps 750 mmHg 98%
    07:00 +26°C° 0.9 mm 1 mps 751 mmHg 98%
    08:00 +27°C° 0 mm 1 mps 751 mmHg 96%
    09:00 +28°C° 0 mm 1 mps 751 mmHg 93%
    10:00 +27°C° 0 mm 0 mps 751 mmHg 91%
    11:00 +27°C° 0.1 mm 0 mps 750 mmHg 87%
    12:00 +28°C° 0.1 mm 0 mps 750 mmHg 83%
    13:00 +29°C° 0.1 mm 0 mps 749 mmHg 80%
    14:00 +29°C° 0 mm 0 mps 749 mmHg 79%
    15:00 +31°C° 0 mm 1 mps 748 mmHg 78%
    16:00 +31°C° 0 mm 1 mps 748 mmHg 77%
    17:00 +30°C° 0 mm 1 mps 748 mmHg 80%
    18:00 +27°C° 0 mm 0 mps 748 mmHg 84%
    19:00 +26°C° 0 mm 0 mps 749 mmHg 88%
    20:00 +26°C° 0 mm 0 mps 749 mmHg 88%
    21:00 +26°C° 0 mm 0 mps 749 mmHg 88%
    22:00 +25°C° 0 mm 0 mps 750 mmHg 88%
    23:00 +25°C° 0.1 mm 0 mps 750 mmHg 90%

    6 June, Saturday

    Time Temperature Precipitation Wind Pressure Humidity
    00:00 +25°C° 0.1 mm 0 mps 749 mmHg 91%
    01:00 +27°C° 0.1 mm 1 mps 749 mmHg 93%
    02:00 +27°C° 0.1 mm 1 mps 749 mmHg 94%
    03:00 +26°C° 0.1 mm 1 mps 749 mmHg 96%
    04:00 +24°C° 0.1 mm 0 mps 749 mmHg 97%
    05:00 +27°C° 0 mm 1 mps 749 mmHg 96%
    06:00 +27°C° 0 mm 1 mps 750 mmHg 95%
    07:00 +28°C° 0 mm 1 mps 750 mmHg 94%
    08:00 +29°C° 0 mm 1 mps 750 mmHg 85%
    09:00 +31°C° 0 mm 1 mps 750 mmHg 76%
    10:00 +33°C° 0 mm 1 mps 750 mmHg 67%
    11:00 +34°C° 0 mm 1 mps 750 mmHg 63%
    12:00 +36°C° 0 mm 2 mps 749 mmHg 59%
    13:00 +36°C° 0 mm 2 mps 749 mmHg 56%
    14:00 +35°C° 0.1 mm 1 mps 748 mmHg 58%
    15:00 +35°C° 0.1 mm 1 mps 748 mmHg 60%
    16:00 +35°C° 0.1 mm 1 mps 747 mmHg 63%
    17:00 +33°C° 0.1 mm 1 mps 748 mmHg 71%
    18:00 +31°C° 0.1 mm 1 mps 748 mmHg 80%
    19:00 +27°C° 0.1 mm 0 mps 748 mmHg 89%
    20:00 +29°C° 0.4 mm 1 mps 749 mmHg 91%
    21:00 +28°C° 0.4 mm 1 mps 749 mmHg 93%
    22:00 +28°C° 0.4 mm 1 mps 750 mmHg 95%
    23:00 +27°C° 0.6 mm 1 mps 750 mmHg 96%

    7 June, Sunday

    Time Temperature Precipitation Wind Pressure Humidity
    00:00 +27°C° 0.6 mm 1 mps 750 mmHg 97%
    01:00 +27°C° 0.6 mm 1 mps 749 mmHg 98%
    02:00 +27°C° 0.2 mm 1 mps 749 mmHg 98%
    03:00 +26°C° 0.2 mm 1 mps 749 mmHg 98%
    04:00 +26°C° 0.2 mm 1 mps 749 mmHg 98%
    05:00 +27°C° 0 mm 1 mps 749 mmHg 97%
    06:00 +27°C° 0 mm 1 mps 750 mmHg 97%
    07:00 +27°C° 0 mm 1 mps 750 mmHg 96%
    08:00 +29°C° 0.1 mm 1 mps 750 mmHg 89%
    09:00 +30°C° 0.1 mm 1 mps 750 mmHg 81%
    10:00 +32°C° 0.1 mm 1 mps 750 mmHg 74%
    11:00 +33°C° 0.3 mm 1 mps 750 mmHg 71%
    12:00 +33°C° 0.3 mm 1 mps 749 mmHg 68%
    13:00 +32°C° 0.3 mm 0 mps 748 mmHg 65%
    14:00 +32°C° 1.2 mm 0 mps 748 mmHg 71%
    15:00 +31°C° 1.2 mm 0 mps 747 mmHg 78%
    16:00 +30°C° 1.2 mm 0 mps 747 mmHg 84%
    17:00 +29°C° 0.4 mm 0 mps 747 mmHg 87%
    18:00 +29°C° 0.4 mm 1 mps 747 mmHg 91%
    19:00 +28°C° 0.4 mm 1 mps 748 mmHg 94%
    20:00 +28°C° 0.1 mm 1 mps 748 mmHg 94%
    21:00 +28°C° 0.1 mm 1 mps 749 mmHg 94%
    22:00 +27°C° 0.1 mm 1 mps 749 mmHg 94%
    23:00 +25°C° 0 mm 0 mps 749 mmHg 95%

    8 June, Monday

    Time Temperature Precipitation Wind Pressure Humidity
    00:00 +25°C° 0 mm 0 mps 749 mmHg 95%
    01:00 +25°C° 0 mm 0 mps 748 mmHg 95%
    02:00 +25°C° 0.1 mm 0 mps 748 mmHg 96%
    03:00 +26°C° 0.1 mm 1 mps 748 mmHg 97%
    04:00 +26°C° 0.1 mm 1 mps 748 mmHg 97%
    05:00 +27°C° 0 mm 1 mps 748 mmHg 96%
    06:00 +27°C° 0 mm 1 mps 749 mmHg 95%
    07:00 +28°C° 0 mm 1 mps 749 mmHg 94%
    08:00 +29°C° 0.3 mm 1 mps 749 mmHg 90%
    09:00 +30°C° 0.3 mm 1 mps 750 mmHg 87%
    10:00 +31°C° 0.3 mm 1 mps 750 mmHg 84%
    11:00 +31°C° 1.3 mm 1 mps 749 mmHg 82%
    12:00 +32°C° 1.3 mm 1 mps 749 mmHg 79%
    13:00 +32°C° 1.3 mm 1 mps 748 mmHg 77%
    14:00 +32°C° 1.3 mm 1 mps 748 mmHg 79%
    15:00 +32°C° 1.3 mm 1 mps 748 mmHg 82%
    16:00 +30°C° 1.3 mm 0 mps 747 mmHg 84%
    17:00 +28°C° 0.4 mm 0 mps 748 mmHg 87%
    18:00 +27°C° 0.4 mm 0 mps 748 mmHg 90%
    19:00 +28°C° 0.4 mm 1 mps 748 mmHg 93%
    20:00 +25°C° 0 mm 0 mps 749 mmHg 94%
    21:00 +25°C° 0 mm 0 mps 749 mmHg 95%
    22:00 +25°C° 0 mm 0 mps 750 mmHg 95%
    23:00 +25°C° 0 mm 0 mps 749 mmHg 96%
    Show more